FW4751 Weather Reports


time (UTC)temp
C
wind
direction
speed
KPH
gust
KPH
rain 1hr
cm
rain 24hr
cm
rain mn
cm
humidity
%
barometer
mb
20260831011025 20 23 4.8 11.3 0.00 0.00 0.00 72 1011.9
20260831010504 20 45 4.8 11.3 0.00 0.00 0.00 72 1012.0
20260831010004 21 23 4.8 9.7 0.00 0.00 0.00 71 1012.0
20260831005524 21 45 4.8 9.7 0.00 0.00 0.00 69 1011.9
20260831005004 21 23 3.2 9.7 0.00 0.00 0.00 69 1012.0
20260831004504 21 23 3.2 11.3 0.00 0.00 0.00 68 1012.0
20260831004024 21 23 3.2 9.7 0.00 0.00 0.00 66 1012.0
20260831003504 21 23 3.2 9.7 0.00 0.00 0.00 66 1012.0
20260831003004 21 23 3.2 8.0 0.00 0.00 0.00 65 1012.1
20260831002504 21 23 3.2 9.7 0.00 0.00 0.00 65 1012.1
20260831002004 21 45 4.8 11.3 0.00 0.00 0.00 65 1012.0
20260831001504 21 23 3.2 9.7 0.00 0.00 0.00 64 1012.2
20260831001004 22 23 3.2 9.7 0.00 0.00 0.00 63 1012.1
20260831000504 22 45 3.2 8.0 0.00 0.00 0.00 63 1012.1
20260831000004 22 23 3.2 14.5 0.00 0.00 0.00 62 1012.1
20260830235504 22 23 3.2 8.0 0.00 0.00 0.00 63 1012.1
20260830235024 22 23 3.2 8.0 0.00 0.00 0.00 63 1012.2
20260830234504 22 23 3.2 9.7 0.00 0.00 0.00 64 1012.2
20260830234004 22 45 3.2 9.7 0.00 0.00 0.00 63 1012.3
20260830233504 22 23 3.2 9.7 0.00 0.00 0.00 63 1012.1
20260830233004 22 45 1.6 9.7 0.00 0.00 0.00 64 1012.2
20260830232504 22 338 3.2 11.3 0.00 0.00 0.00 64 1012.1
20260830232024 22 45 3.2 9.7 0.00 0.00 0.00 65 1012.3
20260830231504 22 45 3.2 8.0 0.00 0.00 0.00 66 1012.3
20260830231004 22 23 3.2 6.4 0.00 0.00 0.00 66 1012.3
20260830230504 22 23 4.8 9.7 0.00 0.00 0.00 66 1012.3
20260830230009 21 45 3.2 6.4 0.00 0.00 0.00 66 1012.5
20260830225504 21 45 3.2 9.7 0.00 0.00 0.00 66 1012.5
20260830225004 21 23 3.2 11.3 0.00 0.00 0.00 66 1012.6
20260830224504 21 45 4.8 11.3 0.00 0.00 0.00 65 1012.5
20260830224004 22 23 3.2 8.0 0.00 0.00 0.00 66 1012.7
20260830223504 21 45 3.2 8.0 0.00 0.00 0.00 66 1012.7
20260830223004 21 45 3.2 11.3 0.00 0.00 0.00 66 1012.8
20260830222504 21 45 3.2 12.9 0.00 0.00 0.00 66 1012.8
20260830222004 21 45 3.2 9.7 0.00 0.00 0.00 66 1012.8
20260830221504 21 45 3.2 9.7 0.00 0.00 0.00 67 1012.8
20260830221004 21 23 3.2 9.7 0.00 0.00 0.00 67 1012.9
20260830220504 21 23 3.2 11.3 0.00 0.00 0.00 67 1012.9
20260830220004 21 45 3.2 11.3 0.00 0.00 0.00 67 1012.9
20260830215504 21 23 4.8 9.7 0.00 0.00 0.00 66 1013.1
20260830215024 21 23 3.2 12.9 0.00 0.00 0.00 67 1013.2
20260830214524 21 45 3.2 9.7 0.00 0.00 0.00 66 1013.2
20260830214004 21 45 3.2 9.7 0.00 0.00 0.00 66 1013.4
20260830213503 21 23 3.2 11.3 0.00 0.00 0.00 66 1013.5
20260830213004 21 45 3.2 8.0 0.00 0.00 0.00 66 1013.6
20260830212504 21 45 3.2 8.0 0.00 0.00 0.00 66 1013.6
20260830212003 21 45 4.8 11.3 0.00 0.00 0.00 66 1013.7
20260830211503 21 45 3.2 9.7 0.00 0.00 0.00 67 1013.8
20260830211004 21 45 3.2 9.7 0.00 0.00 0.00 67 1013.7
20260830210503 21 45 3.2 9.7 0.00 0.00 0.00 67 1013.8
20260830210004 21 45 3.2 8.0 0.00 0.00 0.00 66 1013.9
20260830205503 21 45 3.2 6.4 0.00 0.00 0.00 66 1013.9
20260830205004 21 45 3.2 9.7 0.00 0.00 0.00 66 1013.8
20260830204504 21 338 3.2 8.0 0.00 0.00 0.00 66 1013.7
20260830204003 21 45 3.2 8.0 0.00 0.00 0.00 67 1013.9
20260830203504 21 45 3.2 9.7 0.00 0.00 0.00 67 1013.9
20260830203003 21 23 3.2 9.7 0.00 0.00 0.00 68 1014.0
20260830202504 21 45 3.2 9.7 0.00 0.00 0.00 67 1014.0
20260830202024 21 45 3.2 8.0 0.00 0.00 0.00 68 1014.0
20260830201523 21 23 3.2 9.7 0.00 0.00 0.00 67 1014.1
20260830201003 21 45 3.2 9.7 0.00 0.00 0.00 67 1014.0
20260830200503 21 45 3.2 9.7 0.00 0.00 0.00 68 1014.1
20260830200003 20 45 4.8 11.3 0.00 0.00 0.00 68 1014.0
20260830195504 21 45 3.2 12.9 0.00 0.00 0.00 68 1014.2
20260830195003 21 45 4.8 9.7 0.00 0.00 0.00 67 1014.3
20260830194504 21 23 3.2 9.7 0.00 0.00 0.00 67 1014.2
20260830194003 21 45 3.2 9.7 0.00 0.00 0.00 66 1014.3
20260830193503 21 45 3.2 11.3 0.00 0.00 0.00 65 1014.3
20260830193003 21 45 3.2 11.3 0.00 0.00 0.00 66 1014.3
20260830192504 21 23 3.2 12.9 0.00 0.00 0.00 65 1014.4
20260830192003 21 45 3.2 12.9 0.00 0.00 0.00 64 1014.4
20260830191504 21 45 3.2 8.0 0.00 0.00 0.00 63 1014.3
20260830191004 21 45 3.2 8.0 0.00 0.00 0.00 63 1014.3
20260830190503 21 45 3.2 6.4 0.00 0.00 0.00 62 1014.3
20260830190003 21 45 3.2 8.0 0.00 0.00 0.00 62 1014.4
20260830185503 21 45 1.6 6.4 0.00 0.00 0.00 62 1014.4
20260830185004 21 45 3.2 8.0 0.00 0.00 0.00 64 1014.5
20260830184524 21 23 1.6 4.8 0.00 0.00 0.00 64 1014.6
20260830184003 21 45 3.2 8.0 0.00 0.00 0.00 63 1014.8
20260830183503 21 45 3.2 8.0 0.00 0.00 0.00 63 1014.8
20260830183004 21 45 3.2 9.7 0.00 0.00 0.00 63 1014.8
20260830182503 21 45 3.2 8.0 0.00 0.00 0.00 62 1014.8
20260830182003 22 45 1.6 6.4 0.00 0.00 0.00 61 1014.8
20260830181503 21 45 1.6 4.8 0.00 0.00 0.00 63 1014.8
20260830181003 21 45 1.6 4.8 0.00 0.00 0.00 63 1014.9
20260830180503 21 45 1.6 6.4 0.00 0.00 0.00 62 1014.8
20260830180024 21 45 1.6 4.8 0.00 0.00 0.00 63 1014.9
20260830175543 21 45 1.6 4.8 0.00 0.00 0.00 64 1014.9
20260830175003 20 45 1.6 4.8 0.00 0.00 0.00 65 1014.9
20260830174504 20 135 1.6 6.4 0.00 0.00 0.00 65 1014.9
20260830174003 20 45 1.6 4.8 0.00 0.00 0.00 66 1014.9
20260830173523 20 45 1.6 6.4 0.00 0.00 0.00 65 1014.9
20260830173003 20 135 1.6 4.8 0.00 0.00 0.00 66 1014.9
20260830172503 20 113 1.6 6.4 0.00 0.00 0.00 67 1014.8
20260830172003 20 45 1.6 4.8 0.00 0.00 0.00 67 1014.9
20260830171503 20 113 1.6 4.8 0.00 0.00 0.00 67 1014.8
20260830171023 20 45 1.6 3.2 0.00 0.00 0.00 67 1014.8
20260830170503 19 45 1.6 4.8 0.00 0.00 0.00 68 1014.8
20260830170003 19 45 1.6 4.8 0.00 0.00 0.00 68 1014.8
20260830165503 19 45 1.6 3.2 0.00 0.00 0.00 68 1014.8
20260830165003 19 45 1.6 3.2 0.00 0.00 0.00 68 1015.0
20260830164503 19 45 1.6 3.2 0.00 0.00 0.00 69 1014.8
20260830164003 19 45 1.6 3.2 0.00 0.00 0.00 70 1014.8
20260830163503 18 338 1.6 3.2 0.00 0.00 0.00 70 1014.9
20260830163003 18 45 1.6 3.2 0.00 0.00 0.00 70 1014.9
20260830162503 18 45 1.6 3.2 0.00 0.00 0.00 70 1014.9
20260830162023 18 45 1.6 4.8 0.00 0.00 0.00 69 1014.9
20260830161503 18 315 1.6 3.2 0.00 0.00 0.00 70 1014.9
20260830161004 18 338 1.6 4.8 0.00 0.00 0.00 70 1014.9
20260830160523 18 45 1.6 3.2 0.00 0.00 0.00 71 1015.1
20260830160023 18 0.0 3.2 0.00 0.00 0.00 72 1015.1
20260830155523 17 45 1.6 3.2 0.00 0.00 0.00 74 1015.1
20260830155023 17 135 1.6 3.2 0.00 0.00 0.00 76 1015.2
20260830154505 17 135 1.6 1.6 0.00 0.00 0.00 77 1015.0
20260830154005 16 135 1.6 3.2 0.00 0.00 0.00 78 1015.1
20260830153505 16 135 1.6 1.6 0.00 0.00 0.00 80 1015.1
20260830153005 16 158 1.6 3.2 0.00 0.00 0.00 80 1015.1
20260830152505 16 248 1.6 4.8 0.00 0.00 0.00 81 1015.2
20260830152005 15 315 1.6 3.2 0.00 0.00 0.00 83 1015.1
20260830151505 15 0.0 3.2 0.00 0.00 0.00 86 1015.1
20260830151005 14 225 1.6 3.2 0.00 0.00 0.00 87 1015.1
20260830150505 14 270 1.6 1.6 0.00 0.00 0.00 87 1015.0
20260830150025 13 338 1.6 3.2 0.00 0.00 0.00 88 1015.1
20260830145505 13 315 1.6 3.2 0.00 0.00 0.00 88 1015.0
20260830145005 13 293 1.6 3.2 0.00 0.00 0.00 88 1014.9
20260830144505 13 315 1.6 4.8 0.00 0.00 0.00 89 1015.0
20260830144004 13 293 1.6 3.2 0.00 0.00 0.00 89 1015.0
20260830143505 12 315 1.6 4.8 0.00 0.00 0.00 89 1014.9
20260830143005 12 338 1.6 3.2 0.00 0.00 0.00 89 1014.9
20260830142505 12 315 1.6 3.2 0.00 0.00 0.00 89 1015.0
20260830142005 12 0.0 3.2 0.00 0.00 0.00 89 1014.9
20260830141523 12 0.0 3.2 0.00 0.00 0.00 89 1014.9
20260830141005 12 0.0 1.6 0.00 0.00 0.00 89 1014.7
20260830140504 12 0.0 1.6 0.00 0.00 0.00 89 1014.8
20260830140005 12 0.0 1.6 0.00 0.00 0.00 89 1014.6
20260830135505 12 0.0 1.6 0.00 0.00 0.00 89 1014.7
20260830135004 12 225 1.6 3.2 0.00 0.00 0.00 89 1014.6
20260830134505 12 0.0 1.6 0.00 0.00 0.00 89 1014.5
20260830134004 11 248 1.6 3.2 0.00 0.00 0.00 89 1014.4
20260830133504 11 0.0 3.2 0.00 0.00 0.00 89 1014.4
20260830133004 11 0.0 1.6 0.00 0.00 0.00 89 1014.5
20260830132505 11 0.0 1.6 0.00 0.00 0.00 89 1014.5
20260830132005 11 0.0 1.6 0.00 0.00 0.00 88 1014.4
20260830131504 11 293 1.6 3.2 0.00 0.00 0.00 88 1014.4
20260830131005 11 0.0 3.2 0.00 0.00 0.00 88 1014.4
20260830130504 11 0.0 1.6 0.00 0.00 0.00 87 1014.4
20260830130005 11 0.0 1.6 0.00 0.00 0.00 87 1014.5
20260830125505 11 0.0 1.6 0.00 0.00 0.00 87 1014.4
20260830125005 11 0.0 1.6 0.00 0.00 0.00 87 1014.3
20260830124505 11 0.0 1.6 0.00 0.00 0.00 87 1014.3
20260830124004 11 0.0 1.6 0.00 0.00 0.00 87 1014.2
20260830123525 11 0.0 1.6 0.00 0.00 0.00 87 1014.3
20260830123005 11 0.0 1.6 0.00 0.00 0.00 87 1014.3
20260830122505 11 0.0 1.6 0.00 0.00 0.00 87 1014.1
20260830122005 11 0.0 1.6 0.00 0.00 0.00 87 1014.1
20260830121504 11 0.0 1.6 0.00 0.00 0.00 86 1014.2
20260830121004 11 0.0 1.6 0.00 0.00 0.00 86 1014.2
20260830120505 11 0.0 1.6 0.00 0.00 0.00 86 1014.1
20260830120004 11 0.0 1.6 0.00 0.00 0.00 86 1014.2
20260830115504 11 0.0 1.6 0.00 0.00 0.00 86 1014.1
20260830115004 11 0.0 1.6 0.00 0.00 0.00 86 1014.1
20260830114505 11 0.0 1.6 0.00 0.00 0.00 86 1014.2
20260830114024 11 0.0 1.6 0.00 0.00 0.00 86 1014.2
20260830113524 11 0.0 1.6 0.00 0.00 0.00 86 1014.2
20260830113004 12 0.0 1.6 0.00 0.00 0.00 85 1014.3
20260830112504 12 0.0 1.6 0.00 0.00 0.00 85 1014.2
20260830112004 12 0.0 1.6 0.00 0.00 0.00 85 1014.1
20260830111525 12 0.0 1.6 0.00 0.00 0.00 85 1014.1
20260830111005 12 0.0 1.6 0.00 0.00 0.00 85 1014.1
20260830110504 12 0.0 1.6 0.00 0.00 0.00 85 1014.1
20260830110005 12 0.0 1.6 0.00 0.00 0.00 85 1014.1
20260830105504 12 0.0 1.6 0.00 0.00 0.00 84 1014.1
20260830105004 12 0.0 1.6 0.00 0.00 0.00 84 1013.9
20260830104504 12 0.0 1.6 0.00 0.00 0.00 84 1013.9
20260830104004 12 0.0 1.6 0.00 0.00 0.00 84 1013.9
20260830103504 12 0.0 1.6 0.00 0.00 0.00 84 1013.9
20260830103004 12 0.0 1.6 0.00 0.00 0.00 83 1013.9
20260830102504 12 0.0 1.6 0.00 0.00 0.00 83 1014.1
20260830102004 12 0.0 1.6 0.00 0.00 0.00 83 1013.9
20260830101524 12 0.0 1.6 0.00 0.00 0.00 83 1013.8
20260830101024 12 0.0 1.6 0.00 0.00 0.00 84 1013.9
20260830100505 12 0.0 1.6 0.00 0.00 0.00 83 1013.9
20260830100004 12 0.0 3.2 0.00 0.00 0.00 83 1014.0
20260830095504 12 0.0 1.6 0.00 0.00 0.00 83 1014.0
20260830095024 12 0.0 1.6 0.00 0.00 0.00 83 1014.0
20260830094504 13 0.0 1.6 0.00 0.00 0.00 83 1014.1
20260830094004 13 0.0 1.6 0.00 0.00 0.00 83 1013.9
20260830093504 13 0.0 1.6 0.00 0.00 0.00 83 1013.9
20260830093004 13 0.0 1.6 0.00 0.00 0.00 83 1014.0
20260830092504 13 0.0 1.6 0.00 0.00 0.00 83 1014.0
20260830092004 13 0.0 1.6 0.00 0.00 0.00 83 1014.1
20260830091524 13 0.0 1.6 0.00 0.00 0.00 82 1014.1
20260830091024 13 0.0 1.6 0.00 0.00 0.00 82 1014.1
20260830090524 13 0.0 1.6 0.00 0.00 0.00 82 1014.1
20260830090005 13 0.0 1.6 0.00 0.00 0.00 82 1014.2
20260830085504 13 0.0 1.6 0.00 0.00 0.00 82 1014.3
20260830085004 13 0.0 1.6 0.00 0.00 0.00 82 1014.2
20260830084504 13 0.0 1.6 0.00 0.00 0.00 82 1014.2
20260830084004 13 315 1.6 1.6 0.00 0.00 0.00 82 1014.2
20260830083504 13 0.0 1.6 0.00 0.00 0.00 82 1014.2
20260830083024 13 0.0 1.6 0.00 0.00 0.00 82 1014.2
20260830082504 13 0.0 1.6 0.00 0.00 0.00 82 1014.4
20260830082004 13 0.0 1.6 0.00 0.00 0.00 82 1014.4
20260830081504 13 0.0 1.6 0.00 0.00 0.00 82 1014.4
20260830081004 13 0.0 3.2 0.00 0.00 0.00 82 1014.3
20260830080504 13 0.0 1.6 0.00 0.00 0.00 82 1014.4
20260830080004 13 0.0 1.6 0.00 0.00 0.00 82 1014.4
20260830075504 13 0.0 1.6 0.00 0.00 0.00 81 1014.3
20260830075024 13 0.0 1.6 0.00 0.00 0.00 81 1014.3
20260830074504 14 0.0 1.6 0.00 0.00 0.00 81 1014.2
20260830074024 14 0.0 1.6 0.00 0.00 0.00 80 1014.3
20260830073524 14 0.0 1.6 0.00 0.00 0.00 80 1014.3
20260830073004 14 0.0 1.6 0.00 0.00 0.00 79 1014.3
20260830072504 14 0.0 1.6 0.00 0.00 0.00 79 1014.4
20260830072024 14 0.0 1.6 0.00 0.00 0.00 78 1014.3
20260830071524 15 0.0 1.6 0.00 0.00 0.00 78 1014.4
20260830071004 15 0.0 1.6 0.00 0.00 0.00 77 1014.3
20260830070504 15 0.0 0.0 0.00 0.00 0.00 77 1014.3
20260830070005 15 0.0 1.6 0.00 0.00 0.00 77 1014.3
20260830065504 15 0.0 1.6 0.00 0.00 0.00 77 1014.2
20260830065003 15 0.0 1.6 0.00 0.00 0.00 77 1014.3
20260830064524 15 0.0 1.6 0.00 0.00 0.00 77 1014.3
20260830064004 15 0.0 1.6 0.00 0.00 0.00 77 1014.2
20260830063604 15 0.0 1.6 0.00 0.00 0.00 77 1014.3
20260830063004 15 0.0 1.6 0.00 0.00 0.00 77 1014.4
20260830062504 15 0.0 1.6 0.00 0.00 0.00 76 1014.4
20260830062024 15 0.0 1.6 0.00 0.00 0.00 76 1014.4
20260830061524 15 0.0 1.6 0.00 0.00 0.00 75 1014.5
20260830061004 16 0.0 1.6 0.00 0.00 0.00 75 1014.5
20260830060504 16 0.0 1.6 0.00 0.00 0.00 74 1014.6
20260830060024 16 0.0 1.6 0.00 0.00 0.00 74 1014.6
20260830055504 16 0 1.6 1.6 0.00 0.00 0.00 74 1014.6
20260830055003 16 0 1.6 1.6 0.00 0.00 0.00 74 1014.6
20260830054524 16 0 1.6 3.2 0.00 0.00 0.00 73 1014.7
20260830054003 16 0.0 1.6 0.00 0.00 0.00 72 1014.7
20260830053503 16 0.0 3.2 0.00 0.00 0.00 72 1014.8
20260830053003 16 0.0 1.6 0.00 0.00 0.00 72 1014.7
20260830052504 16 0.0 1.6 0.00 0.00 0.00 71 1014.8
20260830052003 16 0.0 1.6 0.00 0.00 0.00 70 1014.9
20260830051504 16 0.0 1.6 0.00 0.00 0.00 69 1014.8
20260830051024 16 0.0 1.6 0.00 0.00 0.00 69 1014.8
20260830050503 16 0.0 3.2 0.00 0.00 0.00 68 1014.9
20260830050003 16 0.0 1.6 0.00 0.00 0.00 68 1014.8
20260830045503 16 0.0 1.6 0.00 0.00 0.00 67 1014.9
20260830045003 16 0.0 3.2 0.00 0.00 0.00 67 1014.9
20260830044503 16 23 1.6 3.2 0.00 0.00 0.00 66 1014.8
20260830044003 17 0.0 3.2 0.00 0.00 0.00 66 1014.8
20260830043523 17 0.0 1.6 0.00 0.00 0.00 65 1014.8
20260830043004 17 0.0 1.6 0.00 0.00 0.00 65 1014.7
20260830042503 17 0.0 1.6 0.00 0.00 0.00 64 1014.8
20260830042003 17 0.0 1.6 0.00 0.00 0.00 63 1014.8
20260830041503 18 0.0 1.6 0.00 0.00 0.00 63 1014.7
20260830041003 18 0.0 1.6 0.00 0.00 0.00 62 1014.6
20260830040503 18 0.0 0.0 0.00 0.00 0.00 61 1014.6
20260830040003 18 0.0 1.6 0.00 0.00 0.00 60 1014.5
20260830035503 18 0.0 1.6 0.00 0.00 0.00 60 1014.5
20260830035003 18 0.0 1.6 0.00 0.00 0.00 59 1014.5
20260830034503 18 0.0 3.2 0.00 0.00 0.00 59 1014.5
20260830034003 18 0.0 3.2 0.00 0.00 0.00 58 1014.3
20260830033503 19 315 1.6 3.2 0.00 0.00 0.00 58 1014.3
20260830033003 19 315 1.6 3.2 0.00 0.00 0.00 57 1014.3
20260830032503 19 315 1.6 4.8 0.00 0.00 0.00 57 1014.2
20260830032003 20 315 1.6 6.4 0.00 0.00 0.00 56 1014.1
20260830031503 20 338 1.6 3.2 0.00 0.00 0.00 56 1014.0
20260830031044 20 338 1.6 4.8 0.00 0.00 0.00 55 1014.0
20260830030504 20 338 1.6 6.4 0.00 0.00 0.00 55 1014.1
20260830030004 20 45 1.6 4.8 0.00 0.00 0.00 54 1014.0
20260830025503 20 0 1.6 4.8 0.00 0.00 0.00 54 1013.8
20260830025003 21 0 1.6 3.2 0.00 0.00 0.00 53 1013.9
20260830024503 21 0 1.6 4.8 0.00 0.00 0.00 52 1013.9
20260830024003 21 23 1.6 6.4 0.00 0.00 0.00 52 1013.9
20260830023503 21 0 1.6 3.2 0.00 0.00 0.00 51 1013.9
20260830023003 22 0 1.6 3.2 0.00 0.00 0.00 51 1013.8
20260830022503 22 0 1.6 3.2 0.00 0.00 0.00 51 1013.8
20260830022003 22 0.0 3.2 0.00 0.00 0.00 50 1013.8
20260830021523 22 315 1.6 6.4 0.00 0.00 0.00 49 1013.7
20260830021003 22 315 1.6 4.8 0.00 0.00 0.00 49 1013.7
20260830020523 23 338 1.6 6.4 0.00 0.00 0.00 48 1013.8
20260830020003 23 315 1.6 6.4 0.00 0.00 0.00 48 1013.7
20260830015503 23 338 1.6 4.8 0.00 0.00 0.00 48 1013.8
20260830015023 23 315 3.2 8.0 0.00 0.00 0.00 48 1013.8
20260830014543 23 338 3.2 8.0 0.00 0.00 0.00 47 1013.8
20260830014003 23 0 1.6 8.0 0.00 0.00 0.00 47 1013.8
20260830013503 23 0 1.6 6.4 0.00 0.00 0.00 48 1013.7
20260830013003 23 0 1.6 6.4 0.00 0.00 0.00 48 1013.7
20260830012503 23 0 3.2 8.0 0.00 0.00 0.00 47 1013.7
20260830012043 23 338 1.6 6.4 0.00 0.00 0.00 48 1013.8
20260830011505 23 338 1.6 8.0 0.00 0.00 0.00 48 1013.8